Showing default

KUIPER-00454, 68948

Orbit data source: Space-Track

KUIPER-00454, 68948 is a payload satellite owned by Kuiper Systems (US) in LEO that was launched on Thu, 30 Apr 2026 UTC via an ARIANE 64 launch vehicle from the French Guiana (FRGUI). Payload-class satellites include a variety of spacecraft equipped with specific instruments for various scientific and technological missions. These include communications satellites like Starlink; space stations such as the ISS; scientific satellites like the Hubble; Earth observation satellites from companies like Planet Labs, Umbra, and HawkEye 360; GPS; miniature CubeSats for education and research; and military/defense satellites.

Loading next visibility...
Identifier
68948, 2026-098AF
Orbit
LEO
Country
Flag of USUS
Related business
Manufacturer
Kuiper Systems
Mission
Operational Commercial Communications
Bus & Motor
KUIPER, Unknown motor
Mass
~490 kg wet, ~490 kg dry
Launch date (UTC)
2026-04-30 (3 months ago)
Launch vehicle
ARIANE 64
Launch site
French Guiana (FRGUI)
Object type
Payload
Rocket body
Debris
Shape & HBR
Box + 2 Pan, 3.4 m
Radar Cross Section
2.326 m², Large (>1 m²)

Expand to show TLE details & history
Last TLE update: 15 hours ago

TLE from 15 hours ago
0 KUIPER-00454
1 68948U 26098AF  26207.41969483  .00001911  00000-0  30273-3 0  9991
2 68948  51.8988 251.0052 0003383 173.3784 186.7222 14.76447764 13205
Epoch: 2026-07-26T10:04Z
TLE epoch observation values (Epoch: 2026-07-26T10:04:21.633Z)
Latitude
-0.00002°
Longitude
155.79716°
Altitude
643.663 km
Speed
7.536 km/s
True Right ascension
16h 44m 01s
True Declination
0° 00' 00"
Sunlit
Object was in full shadow at epoch
Visualization orbit readout
Latitude
Unknown
Longitude
Unknown
Altitude
Unknown
Speed
Unknown
Apparent Right ascension
Unknown
Apparent Declination
Unknown
Sunlit
N/A
Visualization observer readout
Local Sidereal Time
14:30:20
Azimuth
Unknown
Elevation
Unknown
Doppler factor
Unknown
Orbital elements
Apogee altitude
643.385 km
Perigee altitude
638.635 km
Semi-major axis
7,019.147 km
Eccentricity
0.00034
Inclination
51.8988°
RAAN
251.0052°
Arg. of periapsis
173.3784°
True anomaly
186.71766°
Mean anomaly
186.7222°
Eccentric anomaly
186.71993°
Mean motion
3.69077 °/min
Orbital period
97.54 mins
BSTAR
0.00030273
Loading maneuver chart data...
Computing Atmospheric mass density...
Loading historical data...
Loading historical data...
Loading historical data...
Loading historical data...
Loading historical data...
Loading historical data...
Loading historical data...

Documentation

Showing up to 5 results
|